Theta_e
350 347 347 348 350 353 353 346 320 326 325 317 319 324 318 329 329 325 324 329 323 330 331 330 331 330 328 325 327 331 331 328 328 318 317 334 348 348 352 354 354 354 354 356 359 361 362 363 362 362 362 362 361 361 361 362 363 362 362 361 361 361 362 361 361 363 362 362 363 362 362 363 363 363 362 362 363 362 362 362 363 363 363 362 363 362 361 361 361 361 362 362 363 364 363 363 363
344 346 347 350 352 351 337 343 324 322 320 317 318 321 321 326 325 323 324 327 326 327 333 333 333 334 336 333 333 333 330 333 333 331 337 344 346 347 352 355 355 352 353 356 358 359 361 362 362 362 363 362 360 360 360 362 362 361 360 360 360 360 361 361 361 361 360 362 363 363 362 362 362 363 362 362 363 363 362 362 363 364 364 363 362 362 361 361 361 361 361 362 363 363 363 363 362
343 349 351 354 350 351 343 340 316 318 314 312 317 319 325 323 322 325 328 328 329 332 332 332 333 332 330 334 328 328 323 335 336 338 338 345 340 344 351 354 352 352 353 353 356 359 360 361 361 362 363 363 362 362 362 362 361 361 360 360 359 359 360 359 359 359 360 360 362 362 361 362 362 362 363 362 363 362 363 363 364 363 362 362 362 361 362 362 362 362 362 364 364 363 364 364 363
347 355 358 353 337 346 333 331 324 320 314 316 316 323 324 323 323 327 330 331 331 331 332 330 328 339 331 326 329 334 331 332 338 338 337 340 341 347 350 352 355 351 349 353 355 358 359 361 361 361 362 362 362 362 362 362 361 360 360 360 359 360 359 360 360 359 361 360 361 362 361 362 362 362 361 361 362 363 362 362 363 362 362 361 361 362 363 363 363 363 361 361 362 362 364 363 362
346 357 361 354 344 330 329 324 323 323 315 319 316 324 324 325 325 328 329 330 332 332 333 332 329 334 336 332 333 327 327 335 338 342 340 343 347 350 351 352 351 350 353 355 358 358 359 360 360 361 361 362 361 362 362 362 361 360 360 359 359 360 360 361 361 360 359 361 360 360 359 360 361 361 362 361 363 362 362 363 362 363 362 362 362 362 362 362 362 362 364 362 362 362 362 362 362
351 357 362 357 337 344 333 322 320 320 323 327 321 323 325 326 327 329 330 333 334 334 335 334 328 327 326 329 333 329 336 330 338 340 341 342 348 351 351 352 349 351 353 356 357 358 358 360 360 361 361 361 362 362 361 361 361 360 361 361 361 360 360 360 360 360 360 359 360 359 359 360 362 362 361 361 362 362 361 362 363 362 363 363 363 361 363 362 361 361 361 362 362 363 363 362 363
348 353 349 348 344 342 322 322 320 321 327 331 325 324 325 326 330 331 330 331 334 334 335 331 332 330 325 332 334 338 341 341 338 340 345 346 350 351 351 349 349 352 354 357 358 359 360 361 362 362 361 361 361 361 361 361 361 361 360 360 360 360 360 360 360 359 358 358 358 358 358 359 359 360 360 363 362 361 362 362 363 362 362 363 362 363 362 362 363 362 362 361 362 362 362 362 363
356 346 342 333 326 330 321 324 324 325 327 332 330 326 327 329 333 332 330 329 327 326 330 332 331 328 326 334 326 337 342 343 343 346 346 348 350 350 349 347 351 353 356 358 360 360 365 361 361 361 360 361 361 361 361 361 362 361 360 360 359 359 360 359 359 358 358 359 359 358 358 359 357 359 360 359 360 362 362 362 362 362 363 362 362 363 362 362 361 361 362 362 361 362 362 363 365
355 347 347 334 324 328 323 322 325 329 328 331 329 333 334 333 334 333 330 332 328 331 329 329 329 324 325 329 329 336 339 343 345 349 347 349 349 348 349 349 350 353 356 358 359 360 360 362 361 361 361 361 361 361 361 362 361 362 361 360 360 359 359 359 358 359 359 357 359 359 360 359 360 358 359 359 359 361 361 362 363 363 362 362 362 362 362 361 361 361 362 361 362 363 363 363 363
347 344 330 329 329 320 323 323 324 325 328 332 328 329 331 335 333 335 331 329 330 329 330 332 332 327 330 326 329 334 337 344 345 345 348 348 348 349 349 348 351 353 355 356 358 359 360 364 361 360 360 361 361 361 361 361 360 360 361 360 360 359 359 359 360 359 358 359 359 358 357 358 357 357 355 358 362 361 362 361 361 362 362 362 362 361 361 361 360 360 362 362 363 363 363 363 362
337 344 343 327 319 319 316 320 323 326 329 331 330 333 335 336 334 333 335 333 335 330 331 332 328 328 329 329 331 339 342 343 343 343 347 348 349 349 347 347 351 353 355 356 358 359 359 359 364 361 362 361 361 361 361 360 359 359 359 359 359 358 359 359 358 357 358 359 359 357 356 355 358 356 355 359 362 361 362 361 360 362 361 361 361 362 362 362 362 361 362 363 363 363 363 363 362
335 333 334 321 320 320 321 322 323 326 333 330 328 334 337 335 336 333 331 330 331 328 327 331 326 333 327 326 328 336 340 341 343 346 347 348 347 348 348 348 351 352 355 356 356 357 358 358 360 363 361 361 361 361 361 360 358 358 359 359 358 358 357 358 358 358 358 356 358 357 357 356 358 358 359 360 361 361 361 360 360 361 360 361 360 361 363 362 362 363 362 362 362 362 362 362 362
334 335 330 325 324 325 325 323 324 327 329 330 328 335 337 335 334 334 334 331 330 326 327 333 334 332 323 325 331 336 336 340 344 347 348 347 346 349 350 349 351 354 355 357 356 356 357 358 358 359 360 362 361 360 361 360 358 360 359 359 359 357 357 357 358 358 357 359 358 357 357 358 358 359 360 360 361 361 361 361 361 362 361 360 360 359 362 362 363 363 363 362 362 362 362 362 362
338 339 333 322 329 326 325 325 328 322 324 331 337 336 338 335 336 337 334 330 329 328 331 334 333 332 326 327 329 331 335 341 344 347 346 346 347 348 349 348 350 352 355 356 356 357 357 357 358 359 360 360 360 360 361 360 359 360 360 359 357 357 358 358 356 359 357 358 359 359 359 359 360 360 360 361 360 361 361 361 362 362 361 360 360 361 362 362 362 362 362 362 362 362 362 362 361
342 343 333 327 327 325 326 321 324 326 324 333 338 339 339 339 339 339 336 330 330 332 334 338 333 328 321 325 325 330 335 340 344 346 345 345 347 348 350 349 349 351 353 354 356 357 357 358 358 360 361 359 359 359 359 358 360 359 359 359 358 358 357 357 358 358 358 360 360 360 361 360 360 360 360 360 360 361 361 361 362 361 361 360 360 361 362 362 361 361 361 362 362 362 362 361 359
344 346 334 325 321 321 324 326 328 325 324 336 340 341 338 338 340 337 338 337 332 335 335 327 335 328 328 328 330 334 338 341 344 344 344 345 347 347 348 348 349 348 352 353 354 357 357 358 359 360 359 359 359 356 357 358 359 360 359 359 359 358 358 359 360 359 361 361 361 361 361 360 359 358 362 360 362 361 361 360 362 362 360 360 359 360 361 360 360 360 361 362 363 362 362 361 360
350 342 328 326 320 322 325 325 330 321 331 334 341 339 335 335 342 343 346 341 333 332 334 333 331 332 330 332 335 337 339 342 345 343 344 344 345 344 347 346 345 347 351 352 355 356 356 358 358 359 360 360 355 352 355 356 357 359 358 358 359 359 359 360 359 362 362 361 362 361 360 358 360 359 359 358 361 359 361 361 360 360 360 359 360 359 359 359 360 360 361 361 362 362 362 361 361
341 332 327 323 324 322 330 328 332 333 330 334 338 340 337 333 339 340 341 337 336 333 331 331 331 333 335 336 338 339 340 341 341 341 341 342 343 344 343 344 344 345 350 352 355 357 357 359 359 359 359 358 357 354 354 354 357 357 356 358 358 358 359 359 359 358 360 360 361 361 361 359 359 361 360 361 360 360 360 362 361 361 361 360 360 360 359 360 360 360 360 360 361 363 362 360 361
335 331 328 320 326 329 336 336 337 333 331 336 337 340 339 336 339 339 333 330 332 327 328 330 330 333 335 335 337 338 339 339 340 341 341 341 341 341 342 343 344 345 348 351 352 354 355 357 357 358 359 358 356 357 356 355 357 356 357 358 357 359 359 359 359 359 359 361 362 362 362 359 359 361 361 360 360 361 360 362 362 362 362 361 360 361 361 360 360 360 359 360 361 362 364 366 358
339 330 324 327 333 334 336 339 337 340 338 337 337 338 339 340 339 339 333 329 329 327 326 328 329 329 331 333 336 337 338 338 340 340 340 340 342 341 342 342 342 346 348 351 352 354 354 355 357 359 359 357 356 358 358 356 357 359 357 356 355 357 359 359 360 360 359 360 360 360 360 360 359 362 361 362 362 360 360 362 363 362 363 363 362 361 361 359 360 361 361 361 361 362 363 361 358
336 333 327 330 335 333 337 340 340 341 341 338 339 340 337 338 339 338 334 328 329 330 331 329 328 329 331 334 335 336 336 337 338 339 339 340 340 341 342 342 342 345 349 351 353 354 355 354 357 359 360 360 356 358 357 353 356 361 359 359 357 359 359 360 359 359 360 360 360 359 358 357 356 357 360 360 359 361 360 360 361 361 362 362 363 362 361 361 360 361 360 362 362 362 361 361 360
337 331 337 336 337 334 339 342 344 340 342 341 340 335 334 341 341 336 333 327 324 329 332 332 332 332 333 333 335 336 336 336 337 338 338 338 339 339 341 342 345 347 350 351 352 353 356 355 356 358 358 360 359 359 356 356 357 355 357 358 359 358 360 360 359 359 359 361 359 359 360 358 357 357 358 359 360 362 360 360 360 361 361 362 364 364 363 363 362 362 362 362 361 362 359 358 357
330 336 336 339 339 335 342 341 340 343 339 338 337 337 339 338 337 338 336 332 334 338 334 333 334 335 335 336 336 335 335 335 336 336 338 338 339 339 340 342 344 345 349 350 352 353 353 356 357 356 354 357 361 360 359 359 357 358 358 357 356 358 360 360 360 361 361 361 359 360 357 356 356 356 357 358 359 361 360 360 360 363 363 362 364 362 362 363 363 361 361 362 363 356 357 352 353
333 330 337 338 340 338 343 339 339 341 339 337 340 339 337 336 329 337 335 335 339 338 334 334 335 336 336 335 335 334 335 335 335 337 339 338 339 339 341 342 344 347 347 351 353 353 354 356 358 356 356 357 359 359 359 358 357 357 359 362 358 358 360 359 357 358 361 361 361 361 362 357 355 356 358 358 358 361 360 359 361 360 360 362 364 365 360 362 361 361 359 358 357 355 345 350 352
332 333 337 334 339 340 338 339 340 339 340 341 340 337 334 338 335 337 334 335 335 334 334 334 334 334 334 334 333 334 334 335 336 337 338 339 340 341 342 344 345 346 345 349 352 352 353 355 355 355 356 357 358 358 356 354 355 356 357 359 358 362 361 363 358 358 359 362 361 363 364 358 358 356 357 358 360 358 360 359 360 360 361 364 365 362 361 362 360 360 366 361 362 358 353 354 355
335 334 336 338 337 337 339 339 341 342 343 341 337 336 340 339 341 335 335 336 338 335 333 333 333 332 333 332 333 333 334 335 336 336 337 339 339 339 340 341 343 344 345 347 350 352 354 356 355 355 353 355 357 355 358 356 356 355 356 359 359 360 361 361 362 361 359 356 358 362 359 358 356 356 356 360 358 361 360 359 362 359 360 363 360 358 360 368 367 362 363 359 352 353 357 363 356
336 335 333 336 335 338 339 338 337 344 343 341 336 335 337 343 336 326 336 336 335 332 332 332 331 330 332 333 333 334 334 335 335 337 337 338 338 338 340 341 343 344 346 346 348 351 354 355 354 358 358 361 358 354 356 357 357 356 357 359 359 358 360 360 360 359 358 358 359 362 362 365 356 353 355 360 361 361 361 361 358 362 360 356 363 364 366 365 364 365 362 364 361 363 361 355 356
339 336 337 335 339 339 341 342 341 341 338 343 340 336 339 339 336 327 333 336 335 331 330 330 330 329 331 332 333 334 335 336 337 337 335 336 336 338 338 340 342 344 345 346 348 350 353 352 355 357 357 358 359 355 357 354 354 357 359 356 355 356 359 358 357 360 358 359 360 360 361 360 358 355 356 357 357 360 358 358 358 363 357 365 365 364 362 363 368 365 365 369 369 366 360 357 360
340 336 330 332 337 334 337 337 338 341 335 343 340 333 330 331 327 333 333 337 334 332 329 329 329 330 331 332 332 335 335 337 337 337 336 337 338 339 339 343 343 345 347 347 348 349 349 351 352 354 356 358 357 354 352 353 354 354 355 354 355 354 357 356 354 355 360 365 367 365 364 366 368 363 370 362 363 362 359 360 360 365 369 367 366 363 365 367 359 365 362 365 368 362 357 358 353
338 335 331 330 329 328 334 339 338 338 339 343 343 316 322 330 332 335 337 335 332 331 328 328 329 329 330 331 332 334 335 335 335 336 337 337 339 340 341 343 345 347 347 347 347 348 349 352 353 353 356 356 357 354 356 353 354 353 354 354 356 354 353 353 354 358 362 367 367 370 366 368 371 367 369 369 364 359 363 359 362 363 370 368 369 370 364 365 359 360 361 362 360 364 356 357 353
328 332 332 325 321 321 334 333 337 334 341 343 340 317 321 332 332 335 337 336 331 327 328 328 328 328 330 331 332 333 334 335 336 337 337 338 340 341 342 344 346 348 347 347 347 348 349 350 352 352 355 356 356 355 353 355 355 351 353 355 354 355 352 351 351 355 359 360 363 368 368 369 363 367 370 372 364 363 357 360 362 366 370 371 369 369 365 366 363 363 366 366 363 367 361 363 357
331 323 318 325 320 324 330 337 336 330 336 342 334 320 322 328 332 336 338 337 334 328 328 328 328 329 331 331 332 332 333 335 337 337 338 339 341 341 343 344 346 346 347 348 348 349 348 350 351 351 353 354 356 357 357 359 354 355 355 356 354 356 350 349 350 352 354 356 359 366 370 370 370 372 372 372 369 363 358 364 360 367 370 368 369 369 369 364 364 369 366 363 363 362 361 356 358
326 321 320 318 320 320 324 331 336 337 335 337 333 322 326 327 334 335 337 337 334 331 329 328 329 330 330 330 333 333 333 335 336 337 337 339 341 342 344 345 346 347 348 348 347 348 349 349 350 350 351 353 356 355 358 361 362 357 357 352 350 357 347 348 351 352 353 355 358 362 368 371 372 370 373 372 372 364 361 364 361 363 367 370 366 372 366 364 364 354 373 368 363 364 363 354 352
320 323 321 322 318 321 319 331 335 336 334 330 332 326 325 330 334 334 336 336 333 329 330 329 330 330 331 330 332 332 333 334 334 337 337 340 341 343 344 350 347 349 349 349 349 348 349 350 349 349 352 353 356 359 361 359 358 360 357 357 361 353 349 350 352 353 357 357 359 364 369 370 371 372 373 372 374 369 365 366 363 366 368 372 370 369 369 363 361 363 366 369 364 362 361 356 353
317 316 318 319 321 322 321 322 328 333 332 329 331 326 326 330 333 334 335 335 333 330 330 330 330 330 331 329 332 332 333 333 334 338 338 340 341 342 345 347 347 348 349 350 350 351 351 350 351 354 352 354 356 361 364 362 360 364 354 355 356 357 361 355 355 358 359 361 358 365 371 368 372 371 369 372 373 367 365 366 366 366 370 371 369 365 363 358 359 361 363 366 367 368 367 364 358
316 319 320 320 316 318 321 326 332 333 328 326 327 324 327 328 332 335 335 335 332 331 331 332 331 331 332 330 332 331 332 334 336 340 339 342 342 343 344 346 348 348 350 352 353 350 353 352 351 356 356 354 357 358 360 356 356 358 351 354 355 356 360 357 359 360 360 360 361 364 372 373 371 373 369 372 374 370 366 368 365 366 368 370 368 362 360 359 357 362 366 363 363 362 363 363 359
319 319 321 320 318 320 327 325 331 334 329 325 329 328 329 329 330 334 338 335 334 332 329 330 331 331 331 329 332 332 333 335 337 340 339 342 342 344 344 346 348 349 351 352 351 349 352 351 353 353 356 358 357 356 355 353 353 355 354 350 351 351 357 356 353 355 357 357 362 365 371 364 371 370 372 373 370 371 372 377 368 372 366 369 371 366 360 361 366 367 369 367 358 359 359 355 353
321 318 320 318 321 318 326 327 331 334 326 325 329 327 328 330 333 333 335 336 334 335 331 329 330 330 332 331 333 334 334 337 339 339 339 341 341 344 344 345 350 348 350 352 352 351 354 351 351 351 355 358 356 355 356 354 357 355 352 351 352 354 357 356 359 358 355 356 369 370 371 367 371 371 372 372 374 371 374 371 369 370 369 370 371 373 365 367 370 368 367 365 365 361 359 357 354
314 317 316 317 317 324 329 330 330 330 328 322 325 322 327 330 332 336 336 334 334 336 335 332 331 330 333 331 333 334 335 336 338 339 339 340 341 344 343 344 347 350 350 351 353 353 353 353 356 357 356 355 355 356 359 358 359 360 355 352 355 352 356 356 354 356 361 360 361 365 372 371 372 370 371 372 369 368 372 373 372 373 368 372 370 370 369 371 376 366 369 367 364 364 361 360 366
312 313 314 311 320 319 316 324 328 328 325 323 325 322 323 331 334 335 337 337 335 337 337 337 335 330 332 332 333 335 334 336 337 339 338 339 341 344 343 345 348 350 350 351 353 352 353 357 358 359 357 357 358 359 361 357 359 363 365 364 362 355 355 363 360 359 361 358 357 366 371 371 369 366 365 365 371 370 369 371 367 371 372 377 373 370 369 368 373 372 366 365 365 361 353 356 360
313 313 313 314 319 318 318 323 326 328 329 327 325 322 321 325 326 327 334 340 337 339 336 336 339 335 335 334 337 339 336 338 338 339 340 340 340 343 344 346 349 349 348 350 351 353 354 353 357 359 358 358 359 360 363 363 364 363 368 363 363 366 361 362 356 358 360 360 358 362 362 367 370 365 364 365 366 370 372 371 371 374 372 375 372 373 367 364 363 364 367 369 365 360 355 355 358
311 314 313 316 318 317 324 325 324 323 319 324 322 310 312 321 326 327 334 335 333 335 334 335 336 334 334 333 334 337 339 341 340 340 339 340 341 344 345 347 348 349 348 350 352 354 356 355 357 360 360 359 357 360 363 365 364 364 361 360 358 359 360 359 359 356 357 355 355 359 361 363 364 365 368 368 368 368 371 372 371 368 373 372 374 367 362 363 364 365 365 363 364 367 364 361 354
309 310 316 315 317 320 322 322 321 314 312 320 325 310 308 321 321 326 329 329 330 334 334 334 336 335 333 335 334 336 338 340 342 341 339 341 343 344 344 346 347 348 349 351 352 353 356 357 358 357 360 360 359 362 364 365 362 364 360 355 355 356 357 357 364 358 358 358 363 360 363 364 366 363 363 367 368 371 372 373 372 372 368 373 371 371 372 357 356 362 369 366 366 373 369 364 360
307 314 314 314 315 320 321 322 317 316 324 324 322 318 311 310 318 326 330 328 327 330 334 334 335 335 333 333 333 337 339 340 340 341 340 342 345 344 345 345 345 348 351 351 351 353 358 360 359 359 361 361 359 361 363 365 361 362 361 357 355 355 351 358 359 361 359 362 363 361 360 362 365 368 366 372 370 369 371 370 374 372 373 364 370 376 367 362 368 368 368 368 373 375 370 369 361
311 314 315 313 314 315 316 316 315 317 313 312 317 321 311 310 319 326 328 324 326 327 330 333 336 336 335 334 334 336 339 341 341 340 341 341 344 345 346 344 345 347 349 348 351 356 358 359 362 361 360 362 361 362 363 363 363 361 361 355 358 358 356 356 359 365 369 360 358 360 364 361 367 369 367 366 370 370 370 371 372 372 371 369 374 371 363 361 363 368 377 373 371 374 372 369 370
314 315 316 314 314 315 314 311 310 313 311 306 313 318 308 310 319 319 324 322 322 326 330 333 334 336 335 334 335 337 338 341 341 340 341 341 343 344 345 345 343 345 348 350 352 356 357 359 361 361 360 361 361 363 364 364 363 363 360 361 358 360 359 359 361 362 366 368 363 364 367 369 362 362 367 370 370 371 369 372 367 364 367 362 364 364 365 366 367 371 368 365 368 369 377 371 370
317 315 312 312 311 312 313 312 311 312 305 308 316 318 314 307 316 319 320 320 325 328 331 333 336 335 337 338 337 336 337 339 339 339 341 341 343 344 346 343 343 344 347 350 352 355 358 358 359 361 362 363 363 362 363 362 362 361 361 361 360 358 359 359 359 359 365 363 364 362 364 367 368 363 360 369 367 365 369 371 363 364 366 371 373 366 368 360 359 362 364 365 372 367 365 370 366
315 312 310 309 308 310 309 308 312 303 301 312 319 319 317 306 313 322 327 330 330 330 330 330 332 335 337 339 339 337 337 338 338 338 339 339 342 342 344 344 342 343 345 346 351 354 356 358 359 362 364 366 363 361 361 360 359 362 361 362 361 362 360 354 357 356 360 360 362 365 366 366 366 365 370 365 362 360 369 369 370 365 369 366 369 367 367 368 363 364 369 376 374 374 373 375 366
313 311 309 303 303 304 300 305 300 302 302 314 319 319 313 311 317 321 327 329 330 332 333 333 333 335 336 337 338 338 337 338 338 338 338 338 338 340 341 344 347 348 347 347 352 356 358 358 358 360 362 366 365 362 362 361 362 362 362 362 363 364 363 362 360 359 362 364 364 363 368 369 367 365 365 358 358 359 368 370 369 372 379 375 377 375 373 372 370 367 370 362 365 368 371 372 373
309 307 306 302 299 299 296 301 304 305 309 316 317 320 313 320 322 324 324 330 333 333 335 337 337 335 334 338 340 339 337 337 337 337 337 338 339 339 343 344 344 344 344 344 352 354 356 356 359 359 361 365 366 364 364 362 362 363 365 364 364 365 363 361 361 358 358 368 365 364 363 362 366 362 359 364 362 360 364 364 368 371 375 377 376 376 373 374 374 372 367 372 364 372 371 369 369
309 311 308 305 304 300 297 300 298 302 304 313 318 311 308 307 319 326 329 331 332 334 336 339 341 341 338 339 340 338 337 336 337 337 337 337 339 342 341 342 343 344 343 343 350 354 356 356 360 361 361 362 365 364 364 363 361 362 364 363 364 366 360 364 364 363 363 362 358 360 364 361 361 362 370 367 367 367 363 368 368 368 372 373 374 374 364 372 378 372 375 376 375 366 367 370 368
309 310 311 306 304 309 300 305 304 304 305 308 310 310 314 315 324 330 330 330 330 333 334 336 335 337 339 340 339 341 337 336 336 337 338 338 341 343 342 343 344 343 349 343 345 351 352 356 359 359 360 361 362 364 363 363 363 361 365 364 364 364 366 363 367 368 368 364 364 364 365 368 364 371 366 367 363 364 365 367 367 366 372 368 371 372 372 370 371 374 374 374 370 364 367 366 367
306 307 303 306 312 309 306 306 308 309 306 304 314 311 318 322 325 327 329 328 328 331 332 332 333 335 336 337 339 341 341 339 336 337 337 342 340 341 342 344 343 343 345 343 351 351 355 357 356 359 360 360 360 363 362 363 364 363 363 361 361 362 360 358 357 357 358 361 365 363 360 360 365 366 362 362 361 368 370 367 365 362 372 372 370 371 368 368 371 370 369 373 368 365 369 367 367
307 302 306 312 314 312 307 300 305 302 299 304 310 309 309 313 308 324 325 325 325 328 330 332 333 333 333 336 340 341 340 341 339 339 342 345 343 342 343 343 344 343 346 346 353 349 357 355 355 356 358 358 358 359 359 360 362 361 362 361 362 361 358 357 357 358 357 360 362 365 362 364 360 360 359 364 363 361 368 367 368 369 366 368 367 365 367 369 373 369 366 373 370 372 369 372 371
307 306 313 304 300 299 306 303 296 297 298 301 308 310 309 312 312 320 320 321 324 326 328 330 332 334 335 337 340 341 341 343 344 340 340 344 343 343 345 346 344 346 350 348 348 349 351 352 354 354 356 357 357 357 358 360 360 358 359 359 358 359 359 358 359 362 361 358 356 358 358 361 358 367 366 364 369 361 364 365 371 366 370 367 367 365 369 370 370 370 368 368 369 372 371 369 372
311 311 308 311 307 304 302 303 304 304 300 300 302 306 304 315 317 321 321 323 325 325 327 329 331 334 336 338 340 341 343 342 344 342 339 341 346 344 347 347 348 350 351 352 349 349 348 352 355 352 353 355 355 354 356 356 357 356 357 359 361 363 363 360 359 361 357 356 357 356 357 359 358 360 358 362 363 363 361 360 359 360 361 362 364 362 367 369 370 369 366 362 366 370 367 367 365
303 304 304 306 306 310 307 306 304 301 300 300 300 299 308 321 328 322 325 326 331 330 328 330 333 334 337 337 338 340 342 343 343 344 343 342 343 343 345 348 352 353 354 354 351 353 352 351 352 351 352 350 351 352 352 355 356 356 357 357 357 358 357 357 355 356 356 356 357 360 357 357 361 359 358 360 362 362 364 361 358 360 357 363 368 365 363 368 370 370 373 370 370 369 368 367 368
305 304 303 305 304 301 299 298 308 306 302 297 299 298 310 326 336 333 326 331 330 330 331 330 331 333 335 335 337 340 340 343 346 344 345 341 343 343 341 345 352 352 352 353 353 355 355 355 353 353 354 352 349 348 352 354 357 354 352 354 355 356 357 358 356 354 355 354 355 358 360 360 355 358 359 356 360 357 360 361 359 360 362 362 367 372 361 364 367 368 365 363 365 368 371 369 369
Wind_Speed
6 6 6 8 8 3 2 4 2 1 0 2 2 4 9 10 11 12 12 9 9 8 8 8 10 7 8 10 13 12 11 8 6 5 8 9 12 16 19 18 17 16 15 13 11 10 11 11 12 11 11 11 10 9 7 7 8 8 8 9 9 10 9 9 11 14 14 14 14 13 13 13 14 13 13 15 16 15 15 13 13 13 14 14 14 13 13 13 14 14 15 15 15 15 15 15 15
7 8 7 6 3 2 2 2 1 2 2 4 5 9 10 11 12 11 12 9 7 10 11 10 11 14 14 14 14 16 18 17 20 16 13 15 20 16 18 18 17 17 14 13 12 11 11 11 12 12 12 13 13 9 7 7 8 9 9 8 8 9 10 9 10 12 12 14 13 13 13 14 14 14 14 15 14 15 14 12 11 13 14 14 14 13 13 13 13 13 14 14 14 14 14 14 14
8 7 5 4 1 1 2 2 0 2 1 1 7 9 11 11 11 11 11 10 13 14 13 11 12 9 13 14 15 16 15 20 23 20 12 18 17 14 18 16 16 17 17 13 12 11 10 10 12 13 13 12 12 11 9 9 10 10 9 9 9 9 9 9 10 11 13 13 13 13 13 14 14 13 14 14 15 14 14 13 13 14 14 14 14 14 13 12 12 12 14 14 14 13 14 13 13
8 6 3 3 0 2 0 1 2 1 3 4 9 9 9 11 13 13 10 12 14 13 10 10 9 4 13 16 17 18 16 14 18 19 12 13 14 15 15 15 15 13 13 12 11 11 10 11 13 13 12 11 11 10 10 10 10 10 9 9 9 8 8 9 10 10 11 14 13 12 13 14 14 13 13 14 15 15 13 13 14 15 15 14 14 14 12 12 11 11 12 14 14 13 12 12 13
6 5 6 3 0 1 1 2 1 2 5 5 9 10 12 13 14 12 12 12 11 11 11 11 11 12 12 13 10 9 13 18 16 14 13 15 19 17 16 15 13 15 15 13 12 11 10 13 12 12 12 11 10 10 9 10 10 9 8 9 10 9 9 10 10 10 11 11 13 14 14 14 13 14 14 14 14 16 13 14 14 14 14 15 14 13 12 12 12 12 11 13 14 13 13 13 12
5 6 2 1 1 1 1 2 2 3 5 5 10 11 13 14 13 12 13 12 12 12 9 8 11 13 12 14 10 13 13 10 15 15 16 16 19 18 17 14 15 16 14 13 12 10 10 13 13 12 12 11 10 10 10 9 9 10 9 9 9 9 9 10 10 10 10 11 11 15 13 12 12 11 12 14 15 14 15 15 16 16 15 14 13 13 13 13 12 12 13 14 14 13 12 12 11
4 6 1 2 2 2 3 1 3 3 4 8 9 13 14 14 12 12 13 13 12 12 12 15 16 16 13 11 16 13 15 16 13 15 15 18 18 17 17 15 16 16 15 13 12 12 13 13 13 13 12 11 10 10 10 10 10 10 9 9 9 9 9 10 10 11 11 11 13 13 13 13 10 10 11 13 15 15 14 15 16 15 15 14 13 13 11 12 12 13 13 13 14 13 12 11 11
4 1 2 3 1 1 1 2 1 1 1 8 11 15 14 13 12 10 12 11 10 9 13 14 12 15 18 14 14 12 15 16 20 21 21 17 17 17 17 14 16 15 15 13 12 11 14 15 15 13 12 11 9 9 10 10 10 9 9 9 9 9 9 9 10 10 13 13 12 13 13 12 11 8 14 13 13 15 13 15 16 15 15 14 14 13 13 12 12 13 13 13 12 12 11 10 9
4 1 3 1 0 1 2 1 1 2 5 7 12 12 13 11 10 10 10 8 12 10 13 17 16 15 14 17 15 15 16 20 20 20 19 18 17 16 12 15 15 14 15 13 12 11 11 14 14 13 10 10 9 9 9 9 9 9 8 8 8 9 9 9 10 11 12 13 13 12 12 12 12 10 10 13 14 15 11 15 14 13 14 14 14 13 13 13 12 13 13 12 12 11 10 9 9
3 3 2 1 2 2 0 0 2 1 5 6 13 13 11 9 10 9 11 10 10 11 13 15 16 19 19 19 16 14 14 19 20 19 17 18 17 16 15 16 17 16 14 13 12 12 10 14 14 12 10 9 9 9 9 9 9 8 8 8 9 10 10 10 11 12 12 12 12 12 11 9 13 16 9 12 15 15 14 15 15 14 13 14 14 14 12 11 11 12 12 11 11 10 9 9 9
2 1 3 1 1 0 1 3 2 2 3 9 12 10 9 10 10 10 9 11 11 12 17 19 17 19 16 15 12 14 18 18 19 18 17 16 16 15 14 15 17 16 15 15 13 12 11 11 15 12 11 11 11 11 11 11 10 10 7 8 9 12 10 11 11 12 13 13 13 12 11 8 11 13 14 15 15 14 14 15 14 13 13 13 13 13 12 12 11 11 11 11 10 9 9 9 8
2 1 2 2 0 2 2 3 5 3 6 10 10 9 6 10 10 10 11 10 12 15 16 14 13 17 17 16 12 14 18 17 18 17 16 16 15 15 13 11 16 16 16 14 13 12 11 10 10 12 12 13 12 11 10 12 12 10 9 9 11 11 12 12 10 12 14 13 14 13 12 11 12 14 16 16 15 15 15 15 14 14 13 12 13 12 11 11 11 9 10 10 9 8 9 9 8
0 2 1 3 1 1 4 5 7 10 7 8 11 8 9 10 10 11 10 11 11 15 15 16 18 15 16 13 12 16 18 17 16 17 16 15 16 12 15 15 16 16 14 14 13 12 11 10 9 9 11 14 12 11 11 12 12 11 9 10 12 14 12 12 12 13 12 14 15 15 14 13 14 15 16 16 15 15 15 15 14 14 14 13 12 12 11 9 8 8 7 9 9 8 9 8 7
3 3 2 2 1 3 5 5 5 10 4 6 4 8 7 8 9 8 10 11 11 11 16 18 14 16 18 15 13 13 15 17 17 16 14 16 15 16 16 13 14 13 15 14 12 11 10 10 9 10 10 9 9 10 12 14 11 11 10 10 14 14 13 14 11 12 14 15 17 16 16 15 15 16 16 15 16 15 15 14 14 13 13 12 11 10 9 8 7 7 6 7 9 9 8 7 4
3 4 3 2 1 3 4 6 7 7 7 10 8 7 4 8 10 9 9 11 10 13 15 14 17 13 12 16 14 13 16 18 16 16 16 16 16 15 17 14 14 14 14 14 12 11 10 10 10 8 9 9 9 8 6 8 12 13 10 11 13 16 14 13 16 14 15 15 17 17 16 16 15 15 15 15 16 16 15 14 13 12 12 11 10 9 8 7 7 5 5 5 7 8 8 5 4
4 6 2 1 3 5 1 1 3 9 7 5 8 9 4 9 9 8 8 6 8 11 11 13 12 9 17 15 18 19 20 19 16 16 16 17 15 15 12 13 15 13 12 14 12 9 9 8 8 8 8 8 9 9 6 7 12 14 12 12 12 14 15 16 16 16 15 15 16 17 17 13 14 12 15 13 15 15 14 12 13 12 12 11 9 9 8 7 6 4 4 5 5 7 6 4 3
3 8 0 0 2 5 4 4 6 6 9 11 7 9 8 10 5 6 6 6 11 11 9 8 11 17 15 16 21 21 19 18 17 18 16 13 11 11 9 8 11 10 10 11 10 8 9 8 8 7 8 9 14 10 5 6 10 14 12 13 13 13 15 15 16 15 15 15 13 15 13 9 7 7 8 9 12 9 12 13 13 12 11 11 9 7 7 6 4 3 3 5 3 5 5 4 3
4 2 2 3 3 6 4 6 4 6 11 10 8 8 11 10 5 7 7 8 9 10 10 13 16 16 19 21 20 20 19 18 18 17 14 12 10 7 8 8 9 9 10 8 9 9 8 8 8 8 7 10 11 9 4 5 6 8 7 8 9 11 12 11 9 8 9 7 13 9 7 7 5 5 6 10 7 9 10 13 13 13 11 9 9 8 6 6 5 3 2 1 1 1 7 3 2
3 2 3 4 2 3 8 3 7 11 11 12 10 8 7 11 11 8 9 12 10 12 12 15 20 21 21 21 20 19 19 18 17 16 15 14 13 13 9 8 9 10 9 8 8 10 8 7 8 8 9 9 11 8 6 6 7 6 6 6 6 8 9 9 7 8 6 4 4 4 5 6 6 4 4 7 7 12 11 12 12 12 11 9 8 7 6 5 4 4 3 3 2 2 4 3 3
0 1 2 2 6 8 7 6 3 7 15 12 13 10 11 10 9 9 11 13 11 11 15 19 20 21 21 21 19 19 18 18 16 15 15 14 13 13 12 10 11 9 10 8 9 8 9 8 8 7 8 9 9 8 6 5 4 5 5 4 3 5 6 6 6 6 5 6 6 4 4 5 6 4 9 12 10 7 8 11 12 11 10 9 8 5 4 3 3 3 3 3 4 3 4 4 4
1 4 2 4 10 8 7 5 6 10 11 13 12 12 12 11 9 9 12 12 9 12 15 17 21 21 22 20 19 18 18 17 16 14 14 14 13 12 11 10 11 9 9 8 8 8 9 10 8 8 7 7 9 7 8 5 4 4 4 4 4 4 5 5 5 5 6 7 6 5 5 5 7 5 4 3 4 5 6 6 6 5 4 5 7 3 3 4 4 4 4 4 4 4 4 5 4
1 3 4 5 7 7 4 5 4 7 8 11 11 12 11 9 9 11 11 9 8 9 16 18 20 21 21 21 19 17 18 17 16 14 14 14 13 12 12 11 14 12 10 7 9 9 9 9 9 8 7 6 7 8 9 7 7 5 4 6 5 5 5 5 4 5 6 5 5 6 5 6 5 4 4 4 3 3 4 4 4 4 4 3 4 3 3 3 5 5 5 6 5 6 4 3 8
3 5 10 2 3 8 4 6 5 2 6 9 11 10 11 9 10 9 8 8 7 8 17 18 20 20 20 19 18 18 18 17 16 15 13 14 13 13 13 12 11 12 9 9 9 9 8 8 8 8 7 5 6 8 8 6 5 6 6 5 6 5 4 5 5 4 4 4 5 5 6 6 5 5 5 4 3 2 3 3 3 3 2 3 3 3 3 4 3 3 5 5 6 4 7 4 4
3 6 8 5 3 9 7 8 3 1 6 8 8 13 11 12 13 8 9 10 9 9 18 19 19 19 19 19 18 17 17 17 16 15 12 14 12 13 13 13 11 11 11 12 8 8 7 9 10 8 6 6 6 7 7 6 5 4 2 1 4 5 4 4 4 4 4 4 4 4 5 6 6 6 5 5 4 4 3 3 3 3 3 2 3 2 3 4 3 3 4 6 7 6 4 3 1
3 6 4 8 7 12 11 5 4 4 5 8 10 11 12 9 9 10 11 10 13 15 18 19 19 19 18 18 18 17 16 16 16 15 12 11 13 13 12 12 11 10 13 12 11 11 7 8 11 10 9 8 6 7 8 6 5 4 3 3 4 4 3 3 4 4 3 3 3 3 3 4 4 5 5 5 4 3 3 3 3 2 2 2 2 3 2 2 3 3 2 3 2 2 3 2 2
5 8 11 8 10 13 8 5 5 3 2 7 11 9 9 10 11 11 10 10 11 16 18 19 19 18 17 17 17 15 15 16 15 13 13 11 12 13 12 12 11 12 12 13 12 12 13 11 11 12 11 9 8 7 4 7 7 5 5 4 4 4 3 4 5 3 3 3 3 3 4 3 4 4 4 3 3 2 2 2 1 1 1 2 2 3 5 2 2 1 2 3 2 0 1 2 3
9 8 12 10 12 6 5 8 5 2 5 5 10 10 7 6 3 8 7 12 15 17 19 18 17 17 17 16 15 14 15 15 15 13 13 11 12 11 11 12 12 12 12 14 12 10 13 13 12 12 11 11 9 10 6 7 7 6 6 5 3 2 3 4 5 5 5 5 4 5 4 4 4 4 4 3 2 2 2 2 2 2 1 2 3 1 2 3 2 3 2 2 4 4 1 3 3
9 12 13 11 8 8 6 6 5 4 5 3 10 10 5 4 4 9 9 12 15 16 18 18 16 15 15 16 15 13 13 13 12 13 14 13 10 10 11 9 12 12 12 12 12 10 10 13 12 11 12 10 9 11 10 10 9 7 7 7 5 4 4 3 3 2 5 6 7 6 5 5 5 5 7 5 4 4 4 3 3 2 3 1 4 2 4 4 1 2 2 2 2 5 4 3 2
11 13 11 10 8 7 5 3 3 3 4 0 9 10 6 1 10 9 11 10 14 14 16 17 16 15 16 15 14 11 12 12 11 11 12 10 10 10 11 10 11 11 9 12 12 13 14 12 11 12 10 10 10 11 10 9 8 10 8 7 6 5 3 4 4 4 3 3 2 5 6 4 3 5 3 4 4 2 4 3 1 2 3 2 3 4 4 5 4 3 3 5 4 3 6 4 5
2 0 10 9 4 5 0 1 1 3 3 2 2 6 4 6 9 9 8 11 15 12 14 15 14 14 14 14 13 12 12 12 11 11 11 10 10 12 11 12 12 10 9 9 12 13 11 10 9 9 10 10 10 10 7 7 8 8 7 10 10 9 7 6 6 4 4 3 2 2 2 3 2 3 3 3 3 3 3 4 2 3 2 3 2 4 3 2 3 1 1 2 3 3 4 5 6
6 8 6 4 5 2 3 4 4 3 2 1 3 3 4 6 10 8 7 11 14 15 15 15 14 14 13 13 12 13 13 11 12 12 13 11 11 11 12 12 13 12 10 11 12 12 12 11 9 9 9 10 10 9 8 7 7 8 6 5 6 7 8 7 7 7 5 4 3 2 2 2 2 3 4 4 4 2 3 3 3 1 1 3 1 3 1 1 3 2 1 2 3 2 3 4 5
8 7 4 5 5 3 3 3 5 3 3 1 2 4 6 10 10 8 8 8 12 14 15 15 15 14 13 13 13 13 12 12 13 13 13 12 12 11 11 13 13 11 11 11 12 12 12 11 11 11 11 10 9 7 7 6 8 6 6 6 5 5 4 6 6 7 7 6 4 3 3 2 1 2 2 1 1 1 3 2 5 2 2 1 3 3 3 3 3 1 1 2 2 2 2 3 5
7 4 4 5 6 5 1 5 5 3 5 2 3 3 7 8 11 9 9 9 11 12 14 14 15 15 14 13 12 13 13 12 13 13 13 11 11 11 11 11 13 12 13 12 12 11 11 12 11 13 12 11 9 9 6 5 5 6 6 8 7 4 5 6 5 5 6 7 5 5 4 3 2 2 2 1 2 2 1 3 3 4 2 2 3 2 2 3 4 3 0 2 2 1 3 6 4
6 2 2 3 7 10 5 2 5 7 8 5 4 2 2 7 12 12 9 10 11 13 13 14 13 13 13 13 12 13 11 12 12 12 13 12 11 12 11 9 12 12 12 13 12 11 12 11 11 11 11 11 8 7 6 5 5 5 5 5 5 5 6 6 6 5 5 5 6 5 4 3 2 2 2 2 1 1 3 3 4 5 2 2 3 2 2 2 2 4 3 2 2 2 3 2 4
7 2 3 2 6 9 8 9 9 10 10 7 7 1 6 8 12 12 11 11 10 12 13 14 14 13 12 12 12 14 11 11 12 11 13 13 14 12 13 10 13 12 11 12 11 10 9 9 9 10 10 10 9 7 6 5 6 4 6 6 7 7 4 4 7 3 2 3 6 6 4 4 3 2 2 2 2 1 2 2 3 2 2 3 2 2 2 3 3 6 3 2 2 2 4 4 2
3 5 7 4 5 8 7 8 10 13 12 9 8 7 7 12 11 12 11 10 11 10 10 10 11 12 12 12 12 12 11 12 11 11 13 12 11 12 14 12 11 12 12 11 11 10 8 9 9 8 8 9 9 7 5 6 5 4 6 5 4 4 1 5 5 4 4 4 6 5 3 3 3 2 3 1 3 3 2 3 3 4 1 2 3 2 3 4 7 7 2 1 2 4 4 3 5
9 6 6 4 2 4 3 5 11 10 7 9 9 5 8 11 13 12 12 11 10 10 11 11 11 11 12 12 13 13 12 12 12 12 12 13 13 12 11 11 10 13 13 12 12 12 11 10 9 9 8 8 7 6 6 5 5 4 5 6 6 7 4 7 5 4 5 4 5 5 4 5 3 3 3 2 2 3 1 1 5 1 0 0 2 2 7 6 4 2 1 2 1 1 4 4 4
13 9 10 4 1 4 4 6 9 3 4 4 5 7 7 8 10 12 10 10 11 8 10 12 13 13 11 12 13 13 12 10 13 11 12 13 12 13 12 11 11 14 13 13 11 12 10 12 11 10 9 8 7 7 6 5 4 4 5 5 5 5 4 6 4 4 4 6 5 4 4 4 4 3 3 3 2 2 1 2 4 3 3 3 2 1 2 1 2 2 3 1 1 1 3 5 3
7 8 3 5 3 5 6 7 5 4 1 2 9 10 6 9 9 6 7 12 8 7 5 10 12 15 11 11 13 12 12 11 13 13 13 11 14 14 11 11 12 13 14 14 13 12 12 10 8 8 8 8 7 6 5 5 4 5 5 5 5 4 6 4 3 5 4 7 7 5 3 4 4 4 4 4 4 4 2 1 1 3 2 2 2 2 4 1 2 2 1 1 1 2 3 3 3
8 3 5 4 7 7 5 10 8 3 4 3 9 8 7 4 3 0 4 4 3 3 5 13 8 13 12 13 12 12 13 12 14 14 14 13 13 13 11 12 12 12 12 12 11 12 11 8 8 8 8 7 6 6 4 6 5 3 1 4 2 4 4 4 6 9 7 7 7 6 3 4 4 5 5 6 3 4 4 2 1 2 3 1 2 2 3 1 2 1 1 2 2 2 3 3 2
9 12 7 8 13 10 7 8 10 3 3 2 5 4 1 4 6 2 5 4 3 1 4 5 10 11 10 12 11 11 14 13 14 15 14 13 13 13 12 12 12 12 12 13 14 11 9 13 10 9 7 7 6 6 5 5 5 5 2 5 3 2 6 3 4 3 3 4 6 5 5 5 4 4 4 3 4 3 3 4 3 1 2 1 0 2 2 2 1 2 5 2 1 2 3 2 3
8 12 13 14 16 9 16 15 10 4 1 4 7 4 5 7 9 7 4 0 3 1 2 5 9 11 11 12 13 13 12 13 14 15 15 14 14 13 12 13 13 12 12 13 12 13 12 11 11 9 7 7 8 7 6 4 5 5 4 5 4 4 3 4 2 4 3 5 5 4 6 6 5 4 3 3 3 3 2 3 2 1 0 2 2 2 2 3 2 2 3 2 2 3 2 3 3
11 7 10 8 13 17 20 18 8 5 4 6 9 5 1 5 8 8 6 4 4 2 7 9 9 11 12 9 12 12 14 13 12 14 14 14 13 12 14 12 13 14 13 13 12 14 14 13 11 10 7 7 8 7 7 6 6 5 5 6 5 4 4 4 3 5 5 3 3 4 4 4 4 4 5 2 4 4 2 2 3 3 1 3 3 3 1 2 1 2 3 1 3 2 3 3 4
6 1 14 8 3 17 20 18 12 6 4 6 10 8 3 4 9 10 9 8 6 7 9 10 10 13 13 12 13 13 12 14 11 12 14 13 14 13 13 14 12 11 12 11 11 15 14 12 11 10 8 8 8 7 8 6 6 5 5 5 5 4 5 4 5 3 6 4 3 4 4 5 4 2 2 4 3 4 2 2 2 3 3 3 3 1 1 1 2 2 3 3 3 2 1 1 3
2 4 4 5 4 6 12 12 10 9 9 7 10 10 1 4 7 11 13 11 12 12 13 13 11 12 13 15 14 15 14 12 15 13 14 14 14 14 12 12 13 14 14 14 12 11 13 12 10 10 9 8 9 9 9 8 6 6 5 5 5 5 5 4 3 1 1 7 5 5 3 4 3 5 3 4 3 3 3 3 2 3 2 3 3 2 2 2 2 2 2 3 3 2 2 2 1
4 9 2 6 8 11 11 10 7 10 7 6 9 12 5 4 8 10 12 12 14 14 14 14 11 10 12 13 15 15 13 13 13 14 14 13 15 15 15 14 13 13 14 11 13 13 13 12 11 10 9 8 9 10 9 8 7 6 5 4 5 4 4 5 3 5 3 5 3 3 3 1 3 5 4 3 4 3 3 3 3 4 4 2 1 2 2 2 3 2 2 4 4 2 1 2 2
5 3 7 6 6 6 5 5 4 8 7 6 10 12 6 2 8 10 12 14 17 13 10 9 9 9 13 14 14 14 14 14 12 13 14 14 14 14 13 14 12 13 12 14 11 13 12 12 12 11 10 8 10 10 9 9 8 7 6 5 6 5 5 6 4 5 3 4 4 5 5 4 3 4 5 4 4 4 4 3 4 3 2 1 1 4 0 2 3 3 1 2 2 3 0 1 2
5 7 7 5 8 7 8 8 6 5 7 7 9 6 5 7 5 9 12 5 13 16 15 14 15 15 11 10 11 14 14 13 14 13 14 14 13 13 13 12 12 12 13 14 12 13 14 12 11 11 10 9 10 10 9 9 8 7 6 6 6 5 5 6 6 6 5 5 5 4 4 4 4 3 3 3 4 5 3 3 2 1 2 2 1 3 2 2 3 2 1 1 2 2 2 1 2
6 6 5 8 6 5 7 6 7 6 5 3 7 11 3 8 3 3 11 10 12 16 14 13 14 15 15 15 16 14 13 15 14 13 12 13 13 13 14 11 9 10 10 13 16 12 13 12 13 13 10 10 10 10 10 9 8 8 7 7 6 5 4 5 5 6 5 5 4 3 3 3 3 3 4 5 5 6 3 3 3 3 0 3 3 2 2 3 4 2 1 2 3 2 0 1 1
5 6 7 7 7 6 6 5 5 6 2 8 4 8 2 1 6 7 7 12 10 16 16 15 13 14 16 13 14 14 13 15 14 14 14 12 12 13 11 10 9 9 13 15 15 13 11 12 12 13 11 11 9 10 10 9 8 8 7 7 6 5 5 6 5 6 6 4 4 4 5 5 4 5 5 4 3 3 5 5 3 4 3 2 3 2 2 1 3 3 1 2 1 1 1 3 3
11 10 11 8 7 6 5 4 6 6 4 8 9 6 3 5 1 1 6 9 10 13 16 15 12 10 11 13 14 13 15 15 13 12 14 14 13 12 12 11 11 11 14 13 15 13 12 13 12 12 11 11 11 10 9 10 8 8 7 7 6 5 6 6 5 5 6 6 7 6 4 4 4 4 2 5 4 3 5 3 5 5 4 3 3 3 3 3 2 3 2 0 0 1 2 2 2
5 10 10 11 10 4 8 2 5 5 2 5 4 1 5 2 5 2 7 8 9 12 13 17 18 16 15 13 13 9 9 12 14 13 13 14 13 11 11 12 11 11 10 11 14 14 13 11 12 12 12 12 11 10 9 10 8 8 8 7 8 7 5 6 5 4 5 5 5 4 5 4 4 3 4 4 7 5 6 4 4 5 4 5 4 3 3 2 1 2 2 2 2 1 2 3 3
5 9 11 11 7 11 7 3 6 11 8 6 10 6 2 1 4 5 9 6 10 12 14 15 16 17 17 15 10 5 4 7 11 11 11 12 14 13 11 12 13 13 12 11 9 14 12 13 13 13 13 12 13 11 11 9 8 8 8 8 8 8 8 8 8 8 8 7 5 5 5 6 4 4 4 5 5 5 4 6 5 6 5 3 4 4 4 5 3 3 4 3 3 2 2 2 4
10 7 8 9 10 13 8 7 5 8 8 2 5 7 10 8 4 7 8 10 12 13 15 16 15 17 17 14 10 7 8 7 9 10 10 10 12 14 12 13 14 14 14 12 10 13 12 13 14 14 14 13 13 13 12 11 9 9 9 9 8 8 9 9 8 9 7 6 6 4 6 5 7 7 5 3 5 5 4 5 4 4 5 5 5 5 4 5 5 4 3 3 3 3 3 2 3
12 11 14 7 9 12 7 6 7 7 6 5 6 10 3 5 3 6 8 9 11 11 12 14 15 16 16 14 11 10 9 8 8 10 11 9 11 12 10 12 15 13 12 12 12 13 13 13 14 14 15 15 14 12 12 10 11 10 9 10 11 9 9 8 5 5 5 6 8 7 6 5 6 3 4 3 2 6 5 5 4 4 4 4 4 5 4 4 4 3 3 3 2 1 2 3 4
17 11 12 6 7 7 9 9 6 4 5 4 4 5 2 4 7 9 10 11 12 12 14 14 15 16 15 13 13 10 11 11 8 7 13 11 10 11 11 12 11 11 11 10 12 12 14 12 12 13 14 14 13 13 12 11 12 10 10 10 9 7 6 6 6 6 7 7 8 8 8 8 7 6 5 5 5 6 5 7 7 7 7 7 6 5 6 4 3 4 3 4 3 3 4 4 4
12 11 10 6 6 7 7 6 11 8 6 5 4 3 6 5 4 8 6 4 6 7 9 11 12 15 17 15 15 13 11 9 8 6 7 13 11 10 12 11 8 9 9 9 11 9 10 11 11 12 13 14 14 13 13 10 10 10 10 11 11 10 10 9 10 9 9 8 7 6 6 5 4 6 7 8 6 5 5 5 7 7 8 6 5 5 5 5 4 4 3 2 2 3 4 4 3
11 11 10 6 5 8 6 7 4 8 7 4 6 2 6 5 2 6 10 6 4 2 5 8 13 16 16 16 17 15 13 10 4 5 5 12 10 12 13 10 7 9 10 9 8 7 9 9 10 9 10 10 12 13 10 9 8 10 11 12 12 11 10 9 10 9 9 9 8 7 7 5 8 6 6 7 6 7 7 6 6 5 5 5 5 3 5 4 5 4 5 5 5 5 5 5 4
Wind_Direction
231 217 208 212 218 229 56 33 286 163 99 273 238 176 93 109 119 114 101 107 87 94 105 92 75 53 71 84 80 67 49 58 11 100 108 124 137 141 133 134 138 135 130 128 127 123 114 109 110 106 108 104 96 99 104 115 110 104 102 98 100 101 97 106 111 114 117 116 117 118 120 120 116 113 111 110 110 110 108 108 110 109 108 108 110 108 106 102 99 95 92 94 97 97 97 97 99
215 203 216 210 280 58 18 105 249 17 195 216 140 109 116 123 128 118 121 107 115 121 102 96 77 76 93 97 89 81 64 69 80 92 106 129 140 131 131 139 141 133 129 130 130 121 113 109 109 106 107 107 110 125 137 117 101 96 94 98 104 108 110 118 119 126 126 119 124 124 120 117 114 114 111 111 107 111 120 120 113 113 112 113 111 107 98 96 95 98 97 94 89 95 96 95 97
209 201 225 123 66 69 96 202 240 112 323 220 110 114 140 119 107 109 109 123 108 98 102 111 111 102 90 80 83 82 88 90 96 103 113 125 119 128 133 148 135 131 130 128 118 114 110 106 101 104 107 112 120 125 122 115 105 104 112 113 110 116 124 123 123 125 119 119 121 120 118 117 114 112 112 112 118 116 115 117 117 114 114 113 110 106 102 98 95 95 101 105 106 102 97 97 97
275 333 57 18 247 172 186 229 248 128 161 206 118 126 112 113 108 120 117 98 96 112 116 100 80 43 102 88 86 92 98 94 98 113 124 127 114 132 129 130 125 122 112 109 111 106 107 107 105 106 105 108 115 114 111 108 107 110 112 114 113 117 123 123 118 121 123 124 126 120 118 113 115 117 108 114 115 114 115 116 116 114 115 113 106 99 96 95 93 91 94 103 99 102 103 102 100
254 57 36 82 116 255 80 262 273 144 175 178 119 119 119 115 118 113 108 116 121 108 101 105 98 87 74 90 102 95 102 108 108 109 110 111 121 131 139 136 125 108 103 106 102 102 102 101 100 99 98 102 106 107 105 103 106 107 106 107 113 116 120 121 122 124 124 124 124 125 114 104 116 115 119 120 115 114 119 117 114 113 105 100 103 105 100 96 98 104 103 101 106 106 103 101 100
226 81 313 271 72 310 229 244 255 238 241 272 126 121 115 119 120 118 112 101 100 115 115 99 96 109 102 96 98 105 123 107 115 109 117 116 119 122 116 125 112 106 105 104 105 103 103 103 98 98 103 104 102 101 98 102 105 107 109 110 112 117 117 119 120 121 121 118 115 100 101 108 106 112 116 118 116 113 111 106 107 106 104 99 102 104 104 107 107 106 103 100 99 100 99 98 95
172 115 348 248 86 58 272 289 313 315 118 299 126 123 124 123 119 115 115 124 120 119 109 100 101 98 89 86 87 88 100 117 119 113 111 117 118 120 120 110 103 103 105 101 100 101 105 105 106 104 101 99 100 104 110 112 109 107 112 115 120 123 122 122 123 119 114 101 105 114 118 118 112 115 118 115 114 109 107 108 107 107 106 106 105 102 101 101 103 102 102 103 103 102 102 97 93
100 351 236 105 110 237 298 290 277 62 29 276 118 122 124 124 122 123 121 121 126 122 129 126 102 94 90 102 100 109 105 97 103 110 115 118 121 114 111 111 104 104 102 100 99 103 104 102 100 101 103 102 103 106 105 103 105 107 110 114 118 118 118 119 116 113 106 108 102 106 114 120 123 127 123 119 119 112 110 108 106 104 103 104 108 107 104 101 100 104 104 103 102 101 98 96 90
41 104 189 109 351 132 299 286 121 117 274 215 113 110 125 126 123 120 115 116 123 109 103 110 116 104 99 98 96 100 100 108 108 113 115 117 114 116 116 112 109 108 107 108 106 105 101 104 103 103 99 101 97 91 98 99 101 107 108 111 112 111 114 114 115 110 107 103 105 115 113 115 119 113 101 120 117 106 107 108 106 106 106 105 104 104 107 108 108 109 106 102 98 96 96 94 90
28 342 336 16 356 330 126 59 122 340 240 135 123 129 131 130 123 116 125 123 104 121 117 105 99 100 109 102 108 112 112 116 116 112 114 112 116 115 113 111 111 111 110 109 109 106 106 107 106 103 103 102 99 101 96 89 89 95 107 111 113 113 107 99 101 107 111 108 113 107 107 113 126 123 140 120 113 118 119 112 112 108 106 104 106 107 105 100 103 101 101 101 101 101 98 94 88
123 230 304 6 118 40 242 127 104 221 167 121 122 135 128 120 123 130 128 118 127 111 106 109 112 112 108 100 94 112 120 121 119 115 115 117 113 109 108 113 112 112 112 110 109 108 108 108 108 108 105 105 104 95 91 91 92 80 92 109 116 109 109 106 109 112 114 118 115 116 119 122 117 127 128 121 116 119 115 111 109 106 107 106 105 107 107 106 100 105 105 105 105 104 101 94 88
100 171 140 265 257 143 198 146 155 202 122 134 125 133 142 128 130 131 129 130 126 126 128 138 112 116 108 113 121 126 123 119 113 116 117 117 113 113 112 106 108 107 106 110 109 108 109 110 107 107 106 99 94 94 94 98 100 116 120 116 109 105 112 116 107 114 120 121 122 123 128 135 133 129 122 116 118 116 114 111 109 108 107 110 109 106 97 100 100 95 103 106 107 106 100 95 92
206 167 150 247 19 64 179 155 161 137 141 142 135 137 140 137 136 130 132 128 135 126 114 105 123 122 117 115 122 129 123 121 117 121 124 118 111 106 88 93 103 105 107 108 109 113 117 120 118 111 105 99 91 88 88 91 100 105 106 107 108 107 109 110 122 120 120 128 124 128 136 135 129 119 114 114 118 118 115 112 109 109 111 109 107 108 100 97 101 101 104 115 114 108 102 97 98
129 167 110 306 349 136 171 128 160 147 157 134 127 139 145 134 133 137 134 122 119 114 119 136 129 114 108 124 133 128 122 124 126 125 120 117 116 117 108 111 111 110 109 110 111 114 117 118 117 118 113 103 103 95 86 86 90 102 106 107 104 109 117 124 119 125 130 135 131 132 126 122 115 114 114 117 117 116 115 114 111 109 110 113 110 107 102 97 102 98 95 112 117 111 103 104 126
218 125 135 235 47 108 163 146 183 129 141 155 161 149 138 138 143 140 120 126 126 142 140 119 115 133 138 139 136 132 132 128 128 126 124 117 118 120 123 123 119 118 113 113 112 116 123 125 120 118 114 114 110 89 77 89 96 95 95 99 107 114 117 126 130 126 126 125 124 121 118 118 116 116 118 119 119 119 118 115 112 109 109 109 110 100 95 103 107 105 97 91 120 111 111 123 138
210 164 112 99 156 165 265 198 212 148 152 178 150 128 194 136 137 132 128 145 130 110 133 128 162 114 142 133 130 132 130 132 131 127 123 118 119 109 107 123 120 115 112 112 115 121 121 118 118 116 114 113 98 89 77 86 94 99 92 96 100 109 120 124 122 122 122 120 119 119 120 119 115 114 113 114 117 120 119 116 117 118 117 119 119 112 107 104 107 117 121 104 93 122 123 139 170
225 64 269 208 236 152 185 160 197 161 141 151 172 147 160 126 94 113 152 156 131 123 114 127 112 139 136 125 127 130 132 127 131 126 121 122 126 123 132 118 107 109 106 113 121 127 123 118 112 112 113 106 91 82 96 83 94 91 97 108 112 114 113 112 115 119 118 116 118 121 118 111 106 109 113 111 113 115 121 123 120 120 121 123 122 120 117 122 133 138 131 102 89 134 137 161 203
57 59 46 271 182 147 199 178 181 148 144 154 165 174 148 123 161 148 148 115 109 126 125 137 141 118 115 121 128 130 129 135 132 129 131 131 119 108 114 111 118 117 110 115 120 121 119 115 108 107 112 108 107 125 123 102 94 90 102 110 109 110 106 112 117 122 119 125 123 122 118 117 115 119 112 117 119 124 122 124 127 129 128 129 128 133 149 156 171 163 117 139 143 254 169 178 213
56 131 141 266 167 147 180 153 208 147 150 154 161 190 144 135 152 152 139 137 147 135 142 124 106 111 118 128 129 131 137 135 134 133 136 135 132 132 123 130 116 113 113 119 125 128 127 120 118 122 118 108 106 109 115 119 109 108 105 106 111 109 123 132 127 123 122 111 104 100 113 114 112 107 126 127 126 124 125 130 132 130 133 137 145 149 160 170 158 151 166 201 200 296 214 282 208
286 219 240 173 96 155 167 151 201 154 144 155 149 179 153 144 145 155 141 141 153 138 117 120 123 126 131 130 135 137 138 136 136 139 137 136 132 126 133 133 121 123 118 121 119 121 128 125 126 126 121 121 121 121 108 93 109 126 131 132 139 135 133 126 120 114 122 125 104 80 72 93 102 90 113 116 118 118 124 126 129 131 136 146 151 157 154 166 189 192 200 222 225 212 234 227 242
130 265 355 144 137 133 126 145 166 132 149 152 156 156 142 160 143 154 143 141 141 123 129 131 135 134 134 136 139 143 140 138 141 140 138 133 133 132 133 131 129 127 122 123 122 124 122 126 131 124 126 114 106 103 107 133 138 111 146 149 154 171 147 133 125 139 126 115 119 122 130 127 127 128 128 132 121 133 134 137 142 145 151 146 173 156 182 177 204 197 211 222 235 224 224 235 245
228 317 109 169 154 110 137 163 72 145 156 150 144 147 145 142 150 143 153 135 140 141 134 133 132 135 136 141 142 144 141 141 142 142 141 139 137 134 133 125 121 122 122 117 123 123 122 127 126 124 115 106 118 128 133 151 135 142 167 156 166 147 138 131 136 136 121 114 121 133 134 125 128 131 131 135 135 140 151 160 151 138 146 157 196 166 194 166 208 208 206 212 214 219 212 235 237
302 90 75 229 180 125 143 118 126 221 147 146 153 144 140 155 135 138 132 135 129 129 130 132 132 136 138 140 143 146 143 142 143 141 149 136 142 136 127 125 127 130 130 132 130 123 128 131 123 122 117 122 120 118 129 137 148 145 143 154 148 139 141 130 125 120 126 133 136 144 134 137 140 144 145 148 161 200 178 141 131 137 168 177 191 199 199 200 223 225 219 218 213 214 218 202 251
302 82 119 110 272 122 93 103 145 143 145 158 157 147 142 145 137 154 130 128 137 135 130 131 135 136 140 143 148 145 143 145 141 140 146 136 137 135 134 132 127 125 129 128 129 127 142 131 119 126 127 137 143 131 131 138 137 135 135 117 126 140 126 121 126 127 127 140 158 172 158 151 150 149 152 160 168 192 140 142 136 174 184 188 192 239 213 218 218 245 237 226 222 219 141 199 167
113 94 134 127 242 92 96 120 102 65 208 177 150 139 136 141 130 147 133 140 146 142 130 133 137 140 144 144 144 147 143 142 140 143 144 138 133 134 129 121 125 136 133 137 136 127 139 142 144 148 150 153 150 148 136 130 134 140 155 140 118 92 94 119 130 137 144 164 183 167 173 148 155 155 157 162 173 148 162 160 170 167 208 179 179 223 244 249 234 238 340 331 46 157 162 105 227
58 116 133 162 97 103 130 104 89 159 4 139 136 119 120 114 127 122 146 140 150 136 134 138 141 143 143 145 143 144 144 140 139 145 134 144 135 134 132 132 140 141 139 138 143 142 153 149 150 155 151 156 156 138 139 142 143 154 151 137 116 125 135 149 154 168 172 161 173 193 191 171 162 154 156 152 161 144 158 167 188 174 190 226 245 231 215 172 44 347 313 335 272 13 137 133 217
109 132 114 101 108 132 105 112 143 95 60 124 132 130 98 42 157 123 157 149 148 139 140 139 143 142 144 141 142 145 145 142 145 143 141 141 135 138 138 135 144 134 143 137 137 144 137 147 158 154 153 153 151 133 162 141 146 152 148 125 121 162 175 159 169 176 178 186 189 193 213 221 178 158 153 162 169 150 172 175 161 230 240 230 215 195 6 67 49 13 326 288 348 310 13 188 231
91 92 92 95 85 82 105 87 77 125 89 22 123 109 96 101 185 133 157 157 146 144 141 144 143 145 142 140 139 149 143 145 141 144 141 146 141 142 142 144 134 140 141 131 137 142 144 141 143 146 146 145 138 139 149 149 154 151 142 124 153 180 202 172 185 201 183 193 188 192 189 216 203 172 154 172 174 171 182 187 187 172 230 346 28 9 35 52 329 202 331 293 292 324 312 291 219
117 127 107 104 106 76 33 53 27 353 105 119 123 112 114 210 128 149 159 149 142 146 145 147 144 142 141 141 141 151 140 142 144 145 148 139 143 144 137 142 132 135 132 133 138 150 143 144 142 144 137 136 135 136 136 136 144 148 147 142 157 175 194 193 170 188 156 134 138 167 183 168 117 90 120 160 128 169 128 138 200 90 357 104 68 43 26 46 11 2 3 348 340 353 319 327 327
97 162 114 113 86 93 183 252 20 65 89 227 276 144 135 126 138 162 164 147 150 151 153 147 144 144 142 140 148 144 145 143 161 147 143 146 145 143 144 143 139 138 134 141 153 142 139 134 143 135 139 139 136 132 140 141 146 138 143 151 161 165 181 185 170 151 129 117 121 114 83 73 95 124 172 106 167 137 105 121 142 88 146 38 73 61 53 35 344 355 305 11 348 350 320 329 292
158 108 114 120 137 92 194 212 144 119 18 327 13 142 156 135 158 174 155 162 160 161 156 150 148 146 146 146 150 147 145 157 154 148 139 156 150 140 147 141 131 131 142 151 146 133 137 145 142 135 146 135 133 135 142 134 128 134 135 146 148 157 154 148 141 143 144 140 136 78 88 89 112 62 44 22 5 89 135 124 74 77 62 79 99 100 97 195 185 223 27 13 351 305 295 287 304
139 168 153 168 133 177 190 248 189 146 169 169 136 118 154 168 168 174 165 168 169 166 158 155 154 145 149 148 154 148 152 167 147 158 144 156 147 139 145 136 132 145 145 150 133 144 145 142 139 139 136 137 127 139 132 136 133 140 136 133 139 151 150 142 148 151 146 147 142 131 116 121 116 113 104 87 95 74 110 165 129 162 122 136 60 41 46 349 295 234 86 145 287 328 358 291 292
169 200 161 170 137 153 206 247 215 236 153 163 266 123 148 164 172 173 176 162 186 170 163 161 152 152 152 154 160 148 159 164 149 152 149 152 142 144 138 147 140 151 141 140 142 142 141 139 141 140 143 133 139 132 133 123 121 122 137 147 139 143 147 147 154 139 147 150 141 138 140 136 146 146 119 60 39 321 151 135 136 102 46 99 77 74 71 328 331 354 61 76 139 241 296 288 252
179 192 136 162 143 162 174 161 225 201 179 178 118 75 227 149 163 168 186 178 188 180 168 161 157 158 155 160 160 148 164 158 153 149 154 149 146 145 143 136 127 134 134 142 141 146 144 144 148 143 133 138 131 129 129 131 129 143 149 136 153 131 145 151 150 147 149 133 131 132 137 141 144 156 126 99 47 245 45 50 103 122 156 78 83 92 69 63 342 291 277 172 151 248 249 296 330
104 252 121 159 170 189 151 174 211 193 192 174 139 125 200 177 163 175 185 186 197 188 167 170 163 160 159 168 158 153 163 163 149 155 156 149 147 149 128 140 136 150 147 140 142 139 141 147 136 126 140 136 137 139 145 133 143 176 139 152 139 156 172 151 82 32 13 131 132 131 143 144 142 135 127 144 78 21 154 131 84 96 143 109 123 94 106 76 31 286 274 32 324 294 277 274 204
165 182 126 171 221 199 181 177 179 184 176 183 177 171 195 172 169 173 180 195 199 190 180 170 165 161 166 172 157 157 165 163 153 159 157 150 147 149 140 155 148 145 138 137 138 138 136 133 128 134 136 138 139 147 146 143 164 158 150 151 148 118 198 100 117 148 128 108 133 142 131 102 136 142 151 114 59 41 40 200 137 97 68 149 123 127 69 150 183 236 190 105 346 323 304 295 280
118 118 120 115 284 146 91 182 170 180 176 192 170 196 171 175 171 175 177 182 192 191 193 179 173 166 173 179 157 163 168 162 157 167 159 150 151 146 148 145 148 135 131 139 141 145 145 141 147 147 137 142 150 152 157 160 155 164 153 161 157 149 162 118 139 161 138 152 145 139 140 154 157 154 132 76 150 130 209 35 81 17 95 206 100 173 182 179 176 171 53 108 198 297 300 306 286
145 157 147 159 206 109 94 97 141 112 157 220 149 191 174 184 174 169 180 185 190 203 197 189 178 171 179 179 160 166 166 158 161 165 163 156 153 152 153 149 149 138 142 147 151 149 148 148 155 146 143 154 160 162 166 155 159 163 174 163 153 145 137 134 171 153 152 139 115 147 164 149 153 140 141 125 117 129 324 157 147 162 192 175 201 214 65 173 172 191 171 119 292 219 260 255 55
234 154 146 128 135 102 100 94 104 125 115 320 155 183 197 178 184 186 189 184 186 194 223 212 183 178 174 184 162 164 167 166 163 168 166 163 156 157 156 156 149 149 151 152 153 154 150 150 148 144 154 161 163 163 169 142 177 163 186 157 150 145 160 147 161 147 150 152 152 153 140 136 159 153 162 163 164 155 143 6 358 137 254 157 85 42 305 242 216 98 347 218 181 249 286 313 46
277 216 149 191 155 167 143 119 117 181 127 221 187 189 182 132 25 286 291 252 154 126 74 310 222 186 179 181 169 173 168 171 170 168 174 167 161 158 159 157 152 155 157 145 151 151 152 148 149 155 160 157 162 147 168 154 171 119 40 51 73 180 130 167 159 158 178 168 154 141 161 148 179 166 174 169 147 135 158 136 220 172 188 94 111 201 237 337 6 296 168 66 52 358 19 335 243
235 264 192 151 166 187 151 137 139 146 72 40 263 81 238 176 186 236 284 294 331 14 159 228 272 190 190 179 177 172 175 172 172 171 172 171 165 162 163 157 158 159 162 157 153 158 154 155 158 156 166 151 147 156 159 157 124 109 133 112 256 131 117 193 147 126 162 145 149 159 158 172 192 171 172 168 153 143 127 146 206 241 126 120 327 35 12 302 342 300 73 18 21 31 19 324 314
259 235 248 165 178 144 110 136 133 106 340 228 179 185 200 201 194 197 179 295 264 312 253 225 263 203 191 186 175 179 190 174 176 175 169 175 168 162 164 166 163 163 166 164 160 154 156 155 160 156 162 147 151 162 155 135 130 145 148 154 143 136 144 121 171 135 147 156 145 188 149 182 181 173 157 188 122 124 142 156 113 16 28 180 163 163 229 240 114 313 112 81 317 75 71 331 338
255 355 264 176 176 138 142 152 150 115 163 162 204 230 11 158 199 195 174 189 230 263 233 225 222 208 190 195 176 191 178 178 180 175 173 174 163 167 168 175 169 166 169 168 162 148 157 154 160 161 159 153 150 163 149 141 155 164 164 155 160 148 152 163 172 161 169 136 117 185 182 175 158 192 162 165 138 139 172 146 147 154 314 251 187 203 211 43 60 205 82 114 71 48 33 352 345
243 5 360 323 152 143 155 155 163 148 125 159 174 233 221 194 220 197 177 182 194 217 219 212 205 201 187 198 184 186 186 174 176 186 169 174 160 174 178 173 176 172 160 164 167 148 154 153 159 162 159 155 156 161 150 159 164 170 178 170 155 175 171 172 149 174 159 125 160 165 194 163 185 155 127 129 195 148 152 172 151 105 230 9 296 97 136 141 185 97 84 60 51 14 122 18 2
180 334 266 288 187 218 173 161 173 142 149 162 190 190 215 225 182 175 179 181 197 205 210 207 202 197 195 193 195 185 186 187 173 178 177 170 172 174 179 180 176 172 168 174 150 145 147 156 158 159 163 156 151 164 158 167 171 170 188 181 156 189 169 163 154 128 107 139 182 198 180 159 176 135 192 179 183 166 173 176 163 136 189 194 257 47 78 212 91 92 106 77 44 9 356 59 337
259 359 15 282 259 205 212 205 166 156 201 211 190 184 195 198 151 168 188 192 196 200 204 203 202 207 195 200 196 188 183 188 181 181 178 178 174 178 182 183 179 177 161 169 147 151 151 158 163 159 165 159 153 166 164 168 171 170 190 192 162 194 162 145 165 142 185 119 147 180 116 130 185 172 161 220 155 192 179 182 186 175 206 162 225 56 251 192 141 160 128 139 170 170 29 333 351
69 234 343 254 316 334 297 286 282 164 190 234 176 181 223 240 177 175 178 205 194 177 197 199 201 213 206 196 200 189 185 184 183 182 180 181 179 177 184 177 183 173 164 150 149 149 152 163 161 164 164 161 159 166 169 169 171 174 185 186 168 199 159 151 166 152 159 164 160 182 148 181 229 180 179 182 183 193 188 194 201 177 146 65 155 186 166 318 57 44 33 116 74 112 23 317 284
272 248 214 258 234 219 251 245 189 250 261 74 100 149 221 256 162 186 203 196 184 176 186 190 191 197 192 189 221 198 185 185 184 184 180 183 175 182 179 178 181 174 165 156 151 165 159 163 163 163 165 164 162 170 170 172 176 172 184 184 174 192 173 167 171 158 170 172 183 198 162 181 171 218 87 166 196 198 169 201 167 193 177 204 182 89 43 38 98 96 77 203 185 78 218 116 356
202 245 265 251 231 209 221 192 230 233 274 69 118 131 106 255 291 254 195 200 185 182 179 187 194 184 190 191 202 203 190 187 187 181 182 183 177 181 177 180 175 173 159 152 144 157 156 162 166 165 165 164 168 173 171 177 175 176 180 183 179 177 191 160 165 167 158 182 176 178 165 187 189 195 166 196 185 195 155 200 192 149 358 146 98 115 178 185 103 127 301 71 78 286 347 191 124
206 227 235 225 240 195 255 262 290 270 80 117 172 173 217 339 291 252 231 181 183 185 180 182 200 189 191 191 198 198 192 187 191 181 185 179 175 180 172 177 174 176 167 159 151 157 159 165 166 170 168 164 171 176 172 179 178 175 181 177 179 179 184 163 179 175 174 170 173 187 185 185 196 200 192 184 184 189 168 190 175 138 181 167 158 143 152 101 141 128 166 58 73 153 148 238 213
203 216 228 235 250 235 222 243 269 282 285 136 151 184 198 203 17 275 139 161 177 183 181 178 184 198 200 193 200 200 196 189 192 185 184 178 178 179 171 174 175 182 167 174 158 158 158 165 170 169 171 167 175 177 174 178 178 176 181 180 177 183 182 177 184 172 177 178 184 186 198 188 182 204 211 164 167 189 175 216 164 171 166 183 186 180 191 171 183 148 134 199 128 223 247 251 116
235 187 209 241 240 286 254 170 238 268 266 140 206 117 328 342 29 345 133 156 169 170 178 179 187 189 196 194 199 202 197 190 191 183 185 178 177 182 172 174 173 176 164 177 161 150 165 161 168 171 172 171 179 176 178 179 176 181 178 183 181 184 181 184 181 189 159 188 187 183 180 179 190 179 194 191 162 189 199 169 177 178 178 182 186 189 200 138 160 156 122 169 258 305 50 332 312
152 185 206 220 248 262 280 287 250 262 251 250 129 158 190 297 286 180 151 177 174 179 181 186 186 190 190 192 191 198 217 226 189 181 188 173 174 183 179 173 174 178 176 179 152 156 157 156 168 171 174 177 177 180 181 179 180 175 182 188 187 187 188 191 188 197 188 191 171 187 185 193 159 191 201 196 185 166 197 167 195 180 178 187 187 179 176 153 200 202 180 190 207 183 112 253 261
290 259 198 197 230 269 270 259 204 218 245 213 153 145 159 182 178 174 179 174 179 181 180 182 186 189 194 191 183 181 198 230 203 182 184 175 170 181 181 176 179 180 181 177 155 161 150 160 170 173 176 180 177 182 181 181 182 179 182 193 191 194 194 196 194 192 199 186 180 203 176 193 184 186 208 158 186 186 185 187 194 190 178 190 192 189 190 171 187 194 191 193 208 159 193 223 240
242 257 1 254 184 212 244 294 272 280 249 284 127 179 191 195 104 168 183 181 178 191 170 177 182 187 190 189 181 190 205 227 240 187 179 180 174 180 179 175 182 177 181 178 168 167 162 167 174 178 179 181 181 183 181 182 182 185 186 191 193 193 199 201 202 190 202 189 200 187 210 169 206 212 134 173 202 198 173 185 203 187 187 201 195 197 187 177 188 206 176 195 189 157 241 236 219
245 273 262 292 282 219 212 202 251 244 276 251 277 199 122 111 161 168 188 194 190 188 183 185 185 188 186 186 181 179 200 217 226 214 171 185 179 177 174 172 182 170 173 173 173 174 174 173 174 179 179 183 183 186 178 184 185 191 185 187 194 197 198 203 186 181 204 212 203 198 200 175 204 184 179 165 214 197 190 186 196 211 193 199 195 205 186 192 186 209 194 207 174 198 217 236 244
209 227 250 256 261 347 315 216 203 219 242 236 259 210 141 153 196 188 114 110 148 139 180 179 176 186 192 184 186 183 188 203 209 240 184 175 175 176 171 167 176 162 168 170 172 184 173 174 175 185 177 184 185 189 181 186 184 193 185 185 194 192 202 203 208 185 194 213 208 199 201 210 198 180 194 181 201 196 181 204 205 196 213 173 194 214 187 180 188 187 192 201 208 202 216 238 245
205 219 227 248 221 217 224 265 265 235 205 224 255 287 97 82 194 133 131 183 143 100 174 194 185 189 189 181 186 181 182 177 177 218 244 178 178 174 179 169 177 164 173 165 163 182 175 179 173 183 178 189 183 189 179 180 189 189 189 188 195 191 201 200 208 203 206 202 209 190 184 209 220 200 198 194 194 206 193 208 211 198 218 168 186 197 226 189 185 197 211 203 205 206 219 226 246